Regional Weather Roundup
Issued by NWS Sterling, VA

Home | Current Version | Previous Version | Graphics & Text | Print | Product List | Glossary Off
Versions: 1 2 3 4 5 6 7 8 9 10 11 12 13 14 15 16 17 18 19 20 21 22 23 24 25 26 27

000
ASUS41 KLWX 192010
RWRLWX

REGIONAL WEATHER ROUNDUP
NATIONAL WEATHER SERVICE BALTIMORE MD/WASHINGTON DC
300 PM EST SUN FEB 19 2017

Note: "FAIR" indicates few or no clouds below 12,000 feet
with no significant weather and/or obstructions to visibility.
 TC=TEMPERATURE CELSIUS

 * =Non NWS site. Station does not report precipitation (e.g. rain,
    snow, etc.), thunder, or fog.

DCZ001-MDZ009-015-VAZ040>042-051-053>054-192100-
WASHINGTON METRO

CITY           SKY/WX    TMP DP  RH WIND       PRES   REMARKS
WASHINGTON NAT MOSUNNY   71  43  36 NW14      29.91S
DULLES         MOSUNNY   68  40  35 W20       29.91F
ANDREWS AFB    SUNNY     68  42  37 W13       29.90R
FT BELVOIR     SUNNY     71  42  35 W10       29.91S
QUANTICO       MOSUNNY   73  42  32 NW12      29.92S
COLLEGE PARK*  SUNNY     68  41  37 NW9G18    29.90R
LEESBURG*      SUNNY     68  45  42 NW16G22   29.93S
MANASSAS*      SUNNY     71  43  36 NW14G20   29.92S
GAITHERSBURG*  SUNNY     66  39  37 W16       29.94S

$$

MDZ006>007-011-014-192100-
BALTIMORE METRO

CITY           SKY/WX    TMP DP  RH WIND       PRES   REMARKS
BWI AIRPORT    MOSUNNY   70  42  36 NW10G23   29.88S
MD SCIENCE CTR   N/A     70  38  31 MISG      29.88S
MARTIN STATE   SUNNY     72  43  35 W14       29.89R
ANNAPOLIS      SUNNY     69  41  36 NW12      29.88R
FORT MEADE*    SUNNY     70  39  32 NW10      29.92R

$$

MDZ012-015-019>023-192100-
MARYLAND EASTERN SHORE

CITY           SKY/WX    TMP DP  RH WIND       PRES   REMARKS
OCEAN CITY     MOSUNNY   68  43  40 MISG      29.88R
SALISBURY      SUNNY     70  45  40 W8        29.88R
BAY BRIDGE AP* SUNNY     68  43  40 W3        29.89R
CAMBRIDGE*     SUNNY     66  43  42 N3        29.89S

$$

MDZ017>025-192100-
SOUTHERN MARYLAND

CITY           SKY/WX    TMP DP  RH WIND       PRES   REMARKS
PATUXENT RIVER MOSUNNY   67  47  48 SE6       29.90R
ST INIGOES     SUNNY     67  46  47 W13       29.90R
LEONARDTOWN*   SUNNY     70  39  32 NW10      29.92R

$$

MDZ003>005-192100-
NORTH CENTRAL MARYLAND

CITY           SKY/WX    TMP DP  RH WIND       PRES   REMARKS
FREDERICK*     SUNNY     68  45  42 W9        29.94S
HAGERSTOWN APT SUNNY     67  42  40 SW8       29.91S
WESTMINSTER*   SUNNY     68  41  37 W14G21    29.91R

$$

MDZ501>502-192100-
WESTERN MARYLAND

CITY           SKY/WX    TMP DP  RH WIND       PRES   REMARKS
OAKLAND*       CLOUDY    45  41  87 W9G18     30.01S
CUMBERLAND*    SUNNY     63  39  42 W7G17     30.01R

$$

VAZ025>031-192100-
SHENANDOAH VALLEY

CITY           SKY/WX    TMP DP  RH WIND       PRES   REMARKS
WINCHESTER*    SUNNY     63  37  39 NW17G24   29.95R
FRONT ROYAL*   SUNNY     66  39  37 W7        29.94R
LURAY*         SUNNY     68  43  40 NW9       29.95S
NEW MARKET*    SUNNY     66  35  31 NW7       29.96S
STAUNTON*      SUNNY     67  37  32 NW17      29.98R
WAYNESBORO*    SUNNY     68  36  31 W9G16     29.96S

$$

WVZ021-048>050-054>055-192100-
EASTERN WEST VIRGINIA PANHANDLE

CITY           SKY/WX    TMP DP  RH WIND       PRES   REMARKS
MARTINSBURG    SUNNY     65  41  41 W12       29.93R
PETERSBURG*    SUNNY     63  43  49 W5        30.01R

$$

VAZ036>039-050-192100-
CENTRAL FOOTHILLS

CITY           SKY/WX    TMP DP  RH WIND       PRES   REMARKS
CHARLOTTESVILL SUNNY     73  41  31 W8        29.93S
CULPEPER*      SUNNY     73  42  33 NW8       29.93S
ORANGE*        SUNNY     72  43  35 CALM      29.94R
GORDONSVILLE*  SUNNY     72  42  34 CALM      29.93R
WARRENTON*     SUNNY     74  33  22 W8        29.92R

$$

VAZ055>057-192100-
NORTH AND CENTRAL PIEDMONT

CITY           SKY/WX    TMP DP  RH WIND       PRES   REMARKS
FREDERICKSBRG* SUNNY     72  47  40 NW3       29.91S
STAFFORD*      SUNNY     72  43  36 CALM      29.95F

$$

NCZ024-NYZ072-PAZ021-071-VAZ022-071-192100-
OTHER REGIONAL OBSERVATIONS

CITY           SKY/WX    TMP DP  RH WIND       PRES   REMARKS
NEW YORK CITY  SUNNY     65  30  27 W7        29.82R
PHILADELPHIA   MOSUNNY   69  37  30 W14       29.85R
PITTSBURGH     SUNNY     64  36  35 W13       29.97F
ROANOKE        MOSUNNY   64  41  42 NW15      30.04S
RICHMOND       PTSUNNY   73  46  38 NW5       29.92S
RALEIGH        MOSUNNY   72  42  34 VRB6      29.96F

$$

ANZ530>537-192100-
MARINE OBSERVATIONS

STATION/POSITION TIME  TEMP    WIND        PRES
                       AIR SEA DIR/SP/G
                 (UTC) (F)     (DEG/KT/KT) (MB)
THOMAS PT LIGHT  2000   67 42  290/ 10/ 11   N/A
BALT KEY BRIDGE  1948   63     290/  8/ 10 1011.8R
COVE POINT       1948   61      90/  2/  2 1013.0R
LEWISETTA        1948   64 44  330/  9/ 12 1012.7R
SOLOMONS ISLAND  1948   67 42  320/  7/ 10   N/A
PINEY POINT      1948          300/ 12/ 12   N/A

$$





USA.gov is the U.S. government's official web portal to all federal, state and local government web resources and services.